Information on these data can be found in provided Readme document
Contact Info: Zachary Fasnacht (zachary.fasnacht@ssaihq.com); Nickolay Krotkov (nickolay.a.krotkov@nasa.gov); Lok Lamsal (lok.lamsal@nasa.gov)

FillValue: -999.
ScaleFactor: 1e15
Units: molecules/cm^2

Date(yyyy-mm-dd),City,Country,LonCenter,LatCenter,BoundingCoordinates,Median,Q1,Q3,Mean,Baseline_Median,Baseline_Q1,Baseline_Q3,Baseline_Mean,NumGoodSamples,NumTotalSamples
2015-01-01,Porto-Novo,Benin,2.6289,6.4969,[2.1289 5.9969 3.1289 6.9969],1.168,0.724,1.755,1.317,1.52,0.968,2.214,1.633,204.0,509.0
2015-01-02,Porto-Novo,Benin,2.6289,6.4969,[2.1289 5.9969 3.1289 6.9969],1.223,0.761,1.955,1.427,1.526,0.929,2.265,1.632,234.0,519.0
2015-01-03,Porto-Novo,Benin,2.6289,6.4969,[2.1289 5.9969 3.1289 6.9969],1.215,0.724,1.96,1.426,1.467,0.888,2.234,1.589,215.0,529.0
2015-01-04,Porto-Novo,Benin,2.6289,6.4969,[2.1289 5.9969 3.1289 6.9969],1.234,0.774,2.079,1.497,1.436,0.885,2.128,1.564,233.0,504.0
2015-01-05,Porto-Novo,Benin,2.6289,6.4969,[2.1289 5.9969 3.1289 6.9969],1.293,0.789,2.142,1.57,1.433,0.887,2.162,1.576,220.0,531.0
2015-01-06,Porto-Novo,Benin,2.6289,6.4969,[2.1289 5.9969 3.1289 6.9969],1.372,0.876,2.187,1.604,1.434,0.869,2.141,1.556,235.0,495.0
2015-01-07,Porto-Novo,Benin,2.6289,6.4969,[2.1289 5.9969 3.1289 6.9969],1.509,1.014,2.255,1.722,1.477,0.918,2.156,1.597,217.0,530.0
2015-01-08,Porto-Novo,Benin,2.6289,6.4969,[2.1289 5.9969 3.1289 6.9969],1.611,1.059,2.302,1.752,1.506,0.93,2.21,1.611,202.0,510.0
2015-01-09,Porto-Novo,Benin,2.6289,6.4969,[2.1289 5.9969 3.1289 6.9969],1.68,1.11,2.397,1.843,1.489,0.86,2.211,1.614,217.0,523.0
2015-01-10,Porto-Novo,Benin,2.6289,6.4969,[2.1289 5.9969 3.1289 6.9969],1.714,1.119,2.423,1.877,1.516,0.898,2.224,1.621,191.0,492.0
2015-01-11,Porto-Novo,Benin,2.6289,6.4969,[2.1289 5.9969 3.1289 6.9969],1.68,1.11,2.397,1.84,1.485,0.904,2.229,1.622,217.0,486.0
2015-01-12,Porto-Novo,Benin,2.6289,6.4969,[2.1289 5.9969 3.1289 6.9969],1.68,1.103,2.308,1.799,1.491,0.868,2.215,1.609,198.0,502.0
2015-01-13,Porto-Novo,Benin,2.6289,6.4969,[2.1289 5.9969 3.1289 6.9969],1.671,1.061,2.3,1.746,1.434,0.794,2.131,1.55,217.0,471.0
2015-01-14,Porto-Novo,Benin,2.6289,6.4969,[2.1289 5.9969 3.1289 6.9969],1.914,1.237,2.453,1.919,1.463,0.792,2.186,1.571,195.0,500.0
2015-01-15,Porto-Novo,Benin,2.6289,6.4969,[2.1289 5.9969 3.1289 6.9969],1.68,1.061,2.385,1.78,1.411,0.752,2.171,1.533,203.0,471.0
2015-01-16,Porto-Novo,Benin,2.6289,6.4969,[2.1289 5.9969 3.1289 6.9969],1.695,0.959,2.385,1.767,1.401,0.701,2.18,1.518,192.0,493.0
2015-01-17,Porto-Novo,Benin,2.6289,6.4969,[2.1289 5.9969 3.1289 6.9969],1.667,0.895,2.266,1.624,1.424,0.725,2.152,1.506,183.0,481.0
2015-01-18,Porto-Novo,Benin,2.6289,6.4969,[2.1289 5.9969 3.1289 6.9969],1.666,0.829,2.255,1.603,1.512,0.738,2.215,1.56,199.0,486.0
2015-01-19,Porto-Novo,Benin,2.6289,6.4969,[2.1289 5.9969 3.1289 6.9969],1.592,0.82,2.211,1.535,1.523,0.723,2.233,1.547,181.0,495.0
2015-01-20,Porto-Novo,Benin,2.6289,6.4969,[2.1289 5.9969 3.1289 6.9969],1.642,0.82,2.255,1.56,1.531,0.678,2.181,1.518,199.0,472.0
2015-01-21,Porto-Novo,Benin,2.6289,6.4969,[2.1289 5.9969 3.1289 6.9969],1.587,0.756,2.258,1.516,1.534,0.676,2.195,1.526,184.0,499.0
2015-01-22,Porto-Novo,Benin,2.6289,6.4969,[2.1289 5.9969 3.1289 6.9969],1.666,0.82,2.439,1.701,1.514,0.642,2.235,1.54,197.0,463.0
2015-01-23,Porto-Novo,Benin,2.6289,6.4969,[2.1289 5.9969 3.1289 6.9969],1.587,0.773,2.371,1.684,1.485,0.656,2.202,1.505,179.0,495.0
2015-01-24,Porto-Novo,Benin,2.6289,6.4969,[2.1289 5.9969 3.1289 6.9969],1.443,0.631,2.335,1.566,1.461,0.643,2.173,1.498,156.0,474.0
2015-01-25,Porto-Novo,Benin,2.6289,6.4969,[2.1289 5.9969 3.1289 6.9969],1.37,0.547,2.258,1.498,1.38,0.59,2.125,1.453,189.0,518.0
2015-01-26,Porto-Novo,Benin,2.6289,6.4969,[2.1289 5.9969 3.1289 6.9969],1.344,0.526,2.211,1.449,1.374,0.598,2.104,1.432,180.0,515.0
2015-01-27,Porto-Novo,Benin,2.6289,6.4969,[2.1289 5.9969 3.1289 6.9969],1.266,0.513,2.137,1.397,1.225,0.57,2.052,1.363,206.0,509.0
2015-01-28,Porto-Novo,Benin,2.6289,6.4969,[2.1289 5.9969 3.1289 6.9969],1.261,0.526,2.172,1.396,1.21,0.567,2.008,1.346,209.0,525.0
2015-01-29,Porto-Novo,Benin,2.6289,6.4969,[2.1289 5.9969 3.1289 6.9969],1.255,0.484,2.137,1.348,1.166,0.511,1.978,1.288,225.0,494.0
2015-01-30,Porto-Novo,Benin,2.6289,6.4969,[2.1289 5.9969 3.1289 6.9969],1.217,0.424,1.957,1.343,1.121,0.494,1.892,1.259,204.0,523.0
2015-01-31,Porto-Novo,Benin,2.6289,6.4969,[2.1289 5.9969 3.1289 6.9969],0.994,0.369,1.703,1.194,1.012,0.471,1.74,1.197,208.0,496.0
2015-02-01,Porto-Novo,Benin,2.6289,6.4969,[2.1289 5.9969 3.1289 6.9969],0.951,0.311,1.592,1.137,0.961,0.431,1.667,1.137,224.0,521.0
2015-02-02,Porto-Novo,Benin,2.6289,6.4969,[2.1289 5.9969 3.1289 6.9969],0.843,0.33,1.385,1.083,0.9,0.41,1.552,1.064,229.0,510.0
2015-02-03,Porto-Novo,Benin,2.6289,6.4969,[2.1289 5.9969 3.1289 6.9969],0.832,0.311,1.385,1.067,0.87,0.414,1.49,1.048,258.0,515.0
2015-02-04,Porto-Novo,Benin,2.6289,6.4969,[2.1289 5.9969 3.1289 6.9969],0.683,0.277,1.279,0.973,0.821,0.4,1.42,0.995,259.0,525.0
2015-02-05,Porto-Novo,Benin,2.6289,6.4969,[2.1289 5.9969 3.1289 6.9969],0.706,0.302,1.332,0.984,0.797,0.395,1.362,0.952,277.0,501.0
2015-02-06,Porto-Novo,Benin,2.6289,6.4969,[2.1289 5.9969 3.1289 6.9969],0.581,0.271,1.151,0.733,0.784,0.398,1.316,0.908,264.0,529.0
2015-02-07,Porto-Novo,Benin,2.6289,6.4969,[2.1289 5.9969 3.1289 6.9969],0.584,0.272,1.111,0.728,0.765,0.404,1.28,0.89,268.0,493.0
2015-02-08,Porto-Novo,Benin,2.6289,6.4969,[2.1289 5.9969 3.1289 6.9969],0.588,0.277,1.114,0.729,0.749,0.396,1.262,0.867,258.0,525.0
2015-02-09,Porto-Novo,Benin,2.6289,6.4969,[2.1289 5.9969 3.1289 6.9969],0.584,0.272,1.114,0.722,0.776,0.392,1.29,0.883,239.0,501.0
2015-02-10,Porto-Novo,Benin,2.6289,6.4969,[2.1289 5.9969 3.1289 6.9969],0.572,0.272,1.151,0.73,0.762,0.389,1.297,0.887,246.0,516.0
2015-02-11,Porto-Novo,Benin,2.6289,6.4969,[2.1289 5.9969 3.1289 6.9969],0.538,0.277,1.104,0.722,0.763,0.406,1.291,0.892,220.0,484.0
2015-02-12,Porto-Novo,Benin,2.6289,6.4969,[2.1289 5.9969 3.1289 6.9969],0.502,0.271,1.048,0.7,0.752,0.391,1.285,0.877,200.0,477.0
2015-02-13,Porto-Novo,Benin,2.6289,6.4969,[2.1289 5.9969 3.1289 6.9969],0.536,0.277,1.043,0.706,0.772,0.409,1.279,0.89,207.0,491.0
2015-02-14,Porto-Novo,Benin,2.6289,6.4969,[2.1289 5.9969 3.1289 6.9969],0.544,0.263,1.119,0.723,0.75,0.395,1.29,0.869,223.0,462.0
2015-02-15,Porto-Novo,Benin,2.6289,6.4969,[2.1289 5.9969 3.1289 6.9969],0.601,0.237,1.237,0.766,0.761,0.368,1.31,0.87,207.0,492.0
2015-02-16,Porto-Novo,Benin,2.6289,6.4969,[2.1289 5.9969 3.1289 6.9969],0.602,0.271,1.285,0.793,0.766,0.375,1.326,0.882,170.0,464.0
2015-02-17,Porto-Novo,Benin,2.6289,6.4969,[2.1289 5.9969 3.1289 6.9969],0.662,0.235,1.34,0.85,0.767,0.398,1.332,0.893,185.0,489.0
2015-02-18,Porto-Novo,Benin,2.6289,6.4969,[2.1289 5.9969 3.1289 6.9969],0.724,0.321,1.267,0.849,0.771,0.383,1.311,0.888,177.0,480.0
2015-02-19,Porto-Novo,Benin,2.6289,6.4969,[2.1289 5.9969 3.1289 6.9969],0.724,0.347,1.254,0.843,0.763,0.372,1.298,0.872,176.0,485.0
2015-02-20,Porto-Novo,Benin,2.6289,6.4969,[2.1289 5.9969 3.1289 6.9969],0.682,0.315,1.191,0.796,0.777,0.379,1.304,0.874,158.0,497.0
2015-02-21,Porto-Novo,Benin,2.6289,6.4969,[2.1289 5.9969 3.1289 6.9969],0.724,0.347,1.207,0.831,0.742,0.355,1.253,0.845,178.0,471.0
2015-02-22,Porto-Novo,Benin,2.6289,6.4969,[2.1289 5.9969 3.1289 6.9969],0.74,0.321,1.276,0.846,0.722,0.326,1.213,0.819,174.0,500.0
2015-02-23,Porto-Novo,Benin,2.6289,6.4969,[2.1289 5.9969 3.1289 6.9969],0.676,0.211,1.187,0.758,0.701,0.3,1.217,0.811,186.0,464.0
2015-02-24,Porto-Novo,Benin,2.6289,6.4969,[2.1289 5.9969 3.1289 6.9969],0.682,0.317,1.187,0.789,0.696,0.328,1.231,0.818,172.0,499.0
2015-02-25,Porto-Novo,Benin,2.6289,6.4969,[2.1289 5.9969 3.1289 6.9969],0.682,0.315,1.191,0.787,0.68,0.319,1.257,0.811,159.0,477.0
2015-02-26,Porto-Novo,Benin,2.6289,6.4969,[2.1289 5.9969 3.1289 6.9969],0.682,0.314,1.191,0.79,0.691,0.322,1.24,0.817,194.0,521.0
2015-02-27,Porto-Novo,Benin,2.6289,6.4969,[2.1289 5.9969 3.1289 6.9969],0.682,0.258,1.191,0.795,0.699,0.319,1.251,0.833,210.0,520.0
2015-02-28,Porto-Novo,Benin,2.6289,6.4969,[2.1289 5.9969 3.1289 6.9969],0.724,0.296,1.207,0.809,0.705,0.317,1.271,0.83,213.0,515.0
2015-03-01,Porto-Novo,Benin,2.6289,6.4969,[2.1289 5.9969 3.1289 6.9969],0.724,0.318,1.191,0.805,0.725,0.323,1.261,0.835,219.0,530.0
2015-03-02,Porto-Novo,Benin,2.6289,6.4969,[2.1289 5.9969 3.1289 6.9969],0.743,0.321,1.198,0.821,0.715,0.326,1.239,0.828,234.0,499.0
2015-03-03,Porto-Novo,Benin,2.6289,6.4969,[2.1289 5.9969 3.1289 6.9969],0.743,0.321,1.198,0.821,0.719,0.309,1.235,0.822,234.0,530.0
2015-03-04,Porto-Novo,Benin,2.6289,6.4969,[2.1289 5.9969 3.1289 6.9969],0.688,0.296,1.154,0.758,0.691,0.27,1.24,0.799,219.0,503.0
2015-03-05,Porto-Novo,Benin,2.6289,6.4969,[2.1289 5.9969 3.1289 6.9969],0.671,0.244,1.154,0.741,0.679,0.256,1.229,0.78,234.0,527.0
2015-03-06,Porto-Novo,Benin,2.6289,6.4969,[2.1289 5.9969 3.1289 6.9969],0.671,0.265,1.161,0.754,0.674,0.247,1.229,0.778,216.0,517.0
2015-03-07,Porto-Novo,Benin,2.6289,6.4969,[2.1289 5.9969 3.1289 6.9969],0.673,0.256,1.161,0.749,0.668,0.242,1.196,0.766,247.0,519.0
2015-03-08,Porto-Novo,Benin,2.6289,6.4969,[2.1289 5.9969 3.1289 6.9969],0.618,0.208,1.127,0.709,0.67,0.224,1.196,0.759,251.0,531.0
2015-03-09,Porto-Novo,Benin,2.6289,6.4969,[2.1289 5.9969 3.1289 6.9969],0.618,0.208,1.127,0.709,0.674,0.225,1.207,0.764,251.0,506.0
2015-03-10,Porto-Novo,Benin,2.6289,6.4969,[2.1289 5.9969 3.1289 6.9969],0.701,0.256,1.192,0.763,0.707,0.245,1.235,0.78,239.0,535.0
2015-03-11,Porto-Novo,Benin,2.6289,6.4969,[2.1289 5.9969 3.1289 6.9969],0.701,0.25,1.161,0.743,0.677,0.196,1.184,0.748,246.0,499.0
2015-03-12,Porto-Novo,Benin,2.6289,6.4969,[2.1289 5.9969 3.1289 6.9969],0.725,0.25,1.151,0.737,0.663,0.199,1.15,0.723,235.0,532.0
2015-03-13,Porto-Novo,Benin,2.6289,6.4969,[2.1289 5.9969 3.1289 6.9969],0.714,0.2,1.161,0.733,0.665,0.204,1.153,0.716,217.0,508.0
2015-03-14,Porto-Novo,Benin,2.6289,6.4969,[2.1289 5.9969 3.1289 6.9969],0.714,0.208,1.161,0.729,0.65,0.202,1.122,0.704,216.0,520.0
2015-03-15,Porto-Novo,Benin,2.6289,6.4969,[2.1289 5.9969 3.1289 6.9969],0.662,0.19,1.151,0.693,0.627,0.198,1.093,0.69,190.0,489.0
2015-03-16,Porto-Novo,Benin,2.6289,6.4969,[2.1289 5.9969 3.1289 6.9969],0.605,0.16,1.062,0.656,0.598,0.188,1.071,0.681,196.0,482.0
2015-03-17,Porto-Novo,Benin,2.6289,6.4969,[2.1289 5.9969 3.1289 6.9969],0.6,0.16,1.059,0.639,0.628,0.201,1.092,0.699,204.0,497.0
2015-03-18,Porto-Novo,Benin,2.6289,6.4969,[2.1289 5.9969 3.1289 6.9969],0.6,0.16,1.059,0.639,0.618,0.215,1.111,0.706,204.0,464.0
2015-03-19,Porto-Novo,Benin,2.6289,6.4969,[2.1289 5.9969 3.1289 6.9969],0.636,0.12,1.089,0.65,0.629,0.224,1.116,0.715,183.0,493.0
2015-03-20,Porto-Novo,Benin,2.6289,6.4969,[2.1289 5.9969 3.1289 6.9969],0.673,0.16,1.062,0.688,0.627,0.23,1.132,0.734,151.0,465.0
2015-03-21,Porto-Novo,Benin,2.6289,6.4969,[2.1289 5.9969 3.1289 6.9969],0.714,0.16,1.089,0.708,0.654,0.257,1.165,0.751,173.0,489.0
2015-03-22,Porto-Novo,Benin,2.6289,6.4969,[2.1289 5.9969 3.1289 6.9969],0.653,0.164,1.108,0.717,0.643,0.255,1.152,0.751,157.0,482.0
2015-03-23,Porto-Novo,Benin,2.6289,6.4969,[2.1289 5.9969 3.1289 6.9969],0.653,0.16,1.108,0.753,0.633,0.246,1.094,0.738,150.0,488.0
2015-03-24,Porto-Novo,Benin,2.6289,6.4969,[2.1289 5.9969 3.1289 6.9969],0.653,0.16,1.108,0.753,0.633,0.245,1.084,0.73,150.0,502.0
2015-03-25,Porto-Novo,Benin,2.6289,6.4969,[2.1289 5.9969 3.1289 6.9969],0.653,0.16,1.108,0.753,0.613,0.234,1.033,0.706,150.0,479.0
2015-03-26,Porto-Novo,Benin,2.6289,6.4969,[2.1289 5.9969 3.1289 6.9969],0.653,0.164,1.18,0.79,0.612,0.24,1.043,0.709,143.0,505.0
2015-03-27,Porto-Novo,Benin,2.6289,6.4969,[2.1289 5.9969 3.1289 6.9969],0.714,0.233,1.226,0.821,0.629,0.255,1.072,0.731,160.0,472.0
2015-03-28,Porto-Novo,Benin,2.6289,6.4969,[2.1289 5.9969 3.1289 6.9969],0.728,0.259,1.249,0.835,0.632,0.257,1.092,0.74,143.0,506.0
2015-03-29,Porto-Novo,Benin,2.6289,6.4969,[2.1289 5.9969 3.1289 6.9969],0.704,0.246,1.18,0.786,0.634,0.252,1.111,0.746,143.0,484.0
2015-03-30,Porto-Novo,Benin,2.6289,6.4969,[2.1289 5.9969 3.1289 6.9969],0.653,0.233,1.088,0.767,0.624,0.252,1.095,0.741,174.0,528.0
2015-03-31,Porto-Novo,Benin,2.6289,6.4969,[2.1289 5.9969 3.1289 6.9969],0.713,0.263,1.088,0.809,0.635,0.275,1.091,0.749,153.0,524.0
2015-04-01,Porto-Novo,Benin,2.6289,6.4969,[2.1289 5.9969 3.1289 6.9969],0.713,0.289,1.088,0.786,0.634,0.279,1.068,0.728,149.0,517.0
2015-04-02,Porto-Novo,Benin,2.6289,6.4969,[2.1289 5.9969 3.1289 6.9969],0.676,0.246,1.088,0.794,0.618,0.275,1.043,0.728,166.0,532.0
2015-04-03,Porto-Novo,Benin,2.6289,6.4969,[2.1289 5.9969 3.1289 6.9969],0.709,0.263,1.088,0.811,0.618,0.257,1.067,0.737,174.0,500.0
2015-04-04,Porto-Novo,Benin,2.6289,6.4969,[2.1289 5.9969 3.1289 6.9969],0.709,0.233,1.088,0.795,0.648,0.274,1.069,0.749,170.0,529.0
2015-04-05,Porto-Novo,Benin,2.6289,6.4969,[2.1289 5.9969 3.1289 6.9969],0.713,0.294,1.088,0.773,0.66,0.288,1.074,0.745,160.0,501.0
2015-04-06,Porto-Novo,Benin,2.6289,6.4969,[2.1289 5.9969 3.1289 6.9969],0.722,0.354,1.088,0.791,0.642,0.297,1.075,0.736,184.0,521.0
2015-04-07,Porto-Novo,Benin,2.6289,6.4969,[2.1289 5.9969 3.1289 6.9969],0.729,0.392,1.094,0.795,0.668,0.319,1.125,0.754,182.0,511.0
2015-04-08,Porto-Novo,Benin,2.6289,6.4969,[2.1289 5.9969 3.1289 6.9969],0.728,0.367,1.095,0.792,0.656,0.306,1.121,0.758,213.0,513.0
2015-04-09,Porto-Novo,Benin,2.6289,6.4969,[2.1289 5.9969 3.1289 6.9969],0.728,0.36,1.088,0.786,0.685,0.308,1.138,0.771,233.0,525.0
2015-04-10,Porto-Novo,Benin,2.6289,6.4969,[2.1289 5.9969 3.1289 6.9969],0.713,0.359,1.06,0.768,0.675,0.314,1.116,0.757,249.0,500.0
2015-04-11,Porto-Novo,Benin,2.6289,6.4969,[2.1289 5.9969 3.1289 6.9969],0.67,0.332,0.998,0.742,0.662,0.299,1.116,0.75,232.0,525.0
2015-04-12,Porto-Novo,Benin,2.6289,6.4969,[2.1289 5.9969 3.1289 6.9969],0.67,0.346,1.026,0.75,0.667,0.306,1.123,0.752,248.0,491.0
2015-04-13,Porto-Novo,Benin,2.6289,6.4969,[2.1289 5.9969 3.1289 6.9969],0.696,0.359,1.047,0.769,0.675,0.313,1.09,0.751,231.0,526.0
2015-04-14,Porto-Novo,Benin,2.6289,6.4969,[2.1289 5.9969 3.1289 6.9969],0.707,0.359,1.098,0.771,0.698,0.309,1.108,0.757,219.0,502.0
2015-04-15,Porto-Novo,Benin,2.6289,6.4969,[2.1289 5.9969 3.1289 6.9969],0.684,0.359,1.098,0.771,0.696,0.333,1.11,0.762,246.0,519.0
2015-04-16,Porto-Novo,Benin,2.6289,6.4969,[2.1289 5.9969 3.1289 6.9969],0.702,0.359,1.098,0.777,0.699,0.311,1.109,0.764,227.0,489.0
2015-04-17,Porto-Novo,Benin,2.6289,6.4969,[2.1289 5.9969 3.1289 6.9969],0.709,0.359,1.099,0.767,0.688,0.289,1.11,0.739,233.0,483.0
2015-04-18,Porto-Novo,Benin,2.6289,6.4969,[2.1289 5.9969 3.1289 6.9969],0.698,0.348,1.098,0.75,0.671,0.284,1.101,0.736,247.0,499.0
2015-04-19,Porto-Novo,Benin,2.6289,6.4969,[2.1289 5.9969 3.1289 6.9969],0.698,0.348,1.098,0.75,0.646,0.262,1.08,0.716,247.0,469.0
2015-04-20,Porto-Novo,Benin,2.6289,6.4969,[2.1289 5.9969 3.1289 6.9969],0.684,0.346,1.172,0.75,0.635,0.257,1.066,0.699,235.0,498.0
2015-04-21,Porto-Novo,Benin,2.6289,6.4969,[2.1289 5.9969 3.1289 6.9969],0.664,0.36,1.153,0.755,0.644,0.267,1.076,0.71,215.0,471.0
2015-04-22,Porto-Novo,Benin,2.6289,6.4969,[2.1289 5.9969 3.1289 6.9969],0.647,0.349,1.106,0.737,0.637,0.256,1.077,0.707,236.0,494.0
2015-04-23,Porto-Novo,Benin,2.6289,6.4969,[2.1289 5.9969 3.1289 6.9969],0.634,0.352,1.134,0.74,0.595,0.255,1.069,0.691,222.0,481.0
2015-04-24,Porto-Novo,Benin,2.6289,6.4969,[2.1289 5.9969 3.1289 6.9969],0.664,0.349,1.153,0.74,0.606,0.262,1.046,0.683,225.0,482.0
2015-04-25,Porto-Novo,Benin,2.6289,6.4969,[2.1289 5.9969 3.1289 6.9969],0.659,0.349,1.197,0.737,0.603,0.227,1.072,0.681,235.0,492.0
2015-04-26,Porto-Novo,Benin,2.6289,6.4969,[2.1289 5.9969 3.1289 6.9969],0.589,0.331,1.153,0.698,0.58,0.231,1.07,0.678,251.0,470.0
2015-04-27,Porto-Novo,Benin,2.6289,6.4969,[2.1289 5.9969 3.1289 6.9969],0.562,0.273,1.115,0.684,0.559,0.214,1.027,0.665,237.0,497.0
2015-04-28,Porto-Novo,Benin,2.6289,6.4969,[2.1289 5.9969 3.1289 6.9969],0.562,0.273,1.115,0.684,0.543,0.2,1.025,0.663,237.0,461.0
2015-04-29,Porto-Novo,Benin,2.6289,6.4969,[2.1289 5.9969 3.1289 6.9969],0.562,0.258,1.082,0.683,0.531,0.193,1.017,0.649,218.0,495.0
2015-04-30,Porto-Novo,Benin,2.6289,6.4969,[2.1289 5.9969 3.1289 6.9969],0.55,0.195,1.115,0.645,0.537,0.172,1.005,0.636,193.0,469.0
2015-05-01,Porto-Novo,Benin,2.6289,6.4969,[2.1289 5.9969 3.1289 6.9969],0.556,0.223,1.082,0.65,0.556,0.166,1.004,0.637,229.0,512.0
2015-05-02,Porto-Novo,Benin,2.6289,6.4969,[2.1289 5.9969 3.1289 6.9969],0.55,0.233,1.106,0.666,0.565,0.189,1.053,0.656,217.0,512.0
2015-05-03,Porto-Novo,Benin,2.6289,6.4969,[2.1289 5.9969 3.1289 6.9969],0.55,0.243,1.127,0.676,0.555,0.197,1.039,0.654,217.0,507.0
2015-05-04,Porto-Novo,Benin,2.6289,6.4969,[2.1289 5.9969 3.1289 6.9969],0.55,0.243,1.127,0.682,0.552,0.192,1.019,0.649,236.0,525.0
2015-05-05,Porto-Novo,Benin,2.6289,6.4969,[2.1289 5.9969 3.1289 6.9969],0.545,0.186,1.079,0.651,0.543,0.147,1.009,0.638,254.0,495.0
2015-05-06,Porto-Novo,Benin,2.6289,6.4969,[2.1289 5.9969 3.1289 6.9969],0.537,0.097,1.064,0.601,0.547,0.128,1.004,0.633,235.0,524.0
2015-05-07,Porto-Novo,Benin,2.6289,6.4969,[2.1289 5.9969 3.1289 6.9969],0.537,0.082,1.055,0.595,0.537,0.119,0.981,0.615,199.0,495.0
2015-05-08,Porto-Novo,Benin,2.6289,6.4969,[2.1289 5.9969 3.1289 6.9969],0.405,0.068,1.008,0.579,0.535,0.157,1.042,0.634,199.0,522.0
2015-05-09,Porto-Novo,Benin,2.6289,6.4969,[2.1289 5.9969 3.1289 6.9969],0.401,0.122,0.906,0.569,0.544,0.154,1.048,0.641,183.0,507.0
2015-05-10,Porto-Novo,Benin,2.6289,6.4969,[2.1289 5.9969 3.1289 6.9969],0.429,0.136,0.969,0.579,0.571,0.161,1.112,0.676,175.0,514.0
2015-05-11,Porto-Novo,Benin,2.6289,6.4969,[2.1289 5.9969 3.1289 6.9969],0.478,0.14,1.053,0.62,0.583,0.169,1.116,0.667,180.0,518.0
2015-05-12,Porto-Novo,Benin,2.6289,6.4969,[2.1289 5.9969 3.1289 6.9969],0.541,0.14,1.079,0.626,0.607,0.167,1.084,0.67,194.0,495.0
2015-05-13,Porto-Novo,Benin,2.6289,6.4969,[2.1289 5.9969 3.1289 6.9969],0.541,0.14,1.079,0.626,0.637,0.177,1.091,0.684,194.0,522.0
2015-05-14,Porto-Novo,Benin,2.6289,6.4969,[2.1289 5.9969 3.1289 6.9969],0.59,0.148,0.995,0.627,0.656,0.22,1.092,0.714,205.0,487.0
2015-05-15,Porto-Novo,Benin,2.6289,6.4969,[2.1289 5.9969 3.1289 6.9969],0.616,0.162,0.995,0.662,0.65,0.19,1.093,0.715,196.0,522.0
2015-05-16,Porto-Novo,Benin,2.6289,6.4969,[2.1289 5.9969 3.1289 6.9969],0.596,0.151,0.995,0.657,0.65,0.175,1.142,0.729,160.0,498.0
2015-05-17,Porto-Novo,Benin,2.6289,6.4969,[2.1289 5.9969 3.1289 6.9969],0.639,0.156,1.0,0.65,0.644,0.201,1.138,0.724,183.0,511.0
2015-05-18,Porto-Novo,Benin,2.6289,6.4969,[2.1289 5.9969 3.1289 6.9969],0.639,0.158,0.995,0.631,0.643,0.228,1.107,0.722,161.0,479.0
2015-05-19,Porto-Novo,Benin,2.6289,6.4969,[2.1289 5.9969 3.1289 6.9969],0.603,0.162,0.995,0.637,0.625,0.225,1.099,0.717,162.0,469.0
2015-05-20,Porto-Novo,Benin,2.6289,6.4969,[2.1289 5.9969 3.1289 6.9969],0.639,0.285,1.008,0.702,0.658,0.258,1.095,0.747,154.0,486.0
2015-05-21,Porto-Novo,Benin,2.6289,6.4969,[2.1289 5.9969 3.1289 6.9969],0.64,0.276,1.072,0.716,0.664,0.253,1.119,0.742,157.0,457.0
2015-05-22,Porto-Novo,Benin,2.6289,6.4969,[2.1289 5.9969 3.1289 6.9969],0.64,0.276,1.072,0.716,0.669,0.269,1.158,0.764,157.0,485.0
2015-05-23,Porto-Novo,Benin,2.6289,6.4969,[2.1289 5.9969 3.1289 6.9969],0.565,0.183,0.995,0.627,0.642,0.258,1.132,0.74,151.0,456.0
2015-05-24,Porto-Novo,Benin,2.6289,6.4969,[2.1289 5.9969 3.1289 6.9969],0.576,0.183,0.995,0.631,0.643,0.238,1.13,0.741,161.0,484.0
2015-05-25,Porto-Novo,Benin,2.6289,6.4969,[2.1289 5.9969 3.1289 6.9969],0.583,0.183,0.945,0.633,0.636,0.2,1.086,0.713,143.0,471.0
2015-05-26,Porto-Novo,Benin,2.6289,6.4969,[2.1289 5.9969 3.1289 6.9969],0.583,0.201,0.995,0.644,0.644,0.203,1.121,0.724,122.0,479.0
2015-05-27,Porto-Novo,Benin,2.6289,6.4969,[2.1289 5.9969 3.1289 6.9969],0.565,0.201,0.925,0.639,0.616,0.191,1.124,0.72,106.0,485.0
2015-05-28,Porto-Novo,Benin,2.6289,6.4969,[2.1289 5.9969 3.1289 6.9969],0.541,0.183,0.995,0.622,0.604,0.184,1.131,0.709,109.0,460.0
2015-05-29,Porto-Novo,Benin,2.6289,6.4969,[2.1289 5.9969 3.1289 6.9969],0.372,0.167,1.088,0.618,0.572,0.155,1.109,0.702,98.0,487.0
2015-05-30,Porto-Novo,Benin,2.6289,6.4969,[2.1289 5.9969 3.1289 6.9969],0.375,0.183,1.093,0.64,0.551,0.186,1.085,0.705,102.0,453.0
2015-05-31,Porto-Novo,Benin,2.6289,6.4969,[2.1289 5.9969 3.1289 6.9969],0.375,0.183,1.093,0.64,0.524,0.186,1.042,0.676,102.0,487.0
2015-06-01,Porto-Novo,Benin,2.6289,6.4969,[2.1289 5.9969 3.1289 6.9969],0.372,0.167,0.925,0.593,0.536,0.172,1.045,0.681,68.0,464.0
2015-06-02,Porto-Novo,Benin,2.6289,6.4969,[2.1289 5.9969 3.1289 6.9969],0.372,0.167,0.925,0.593,0.518,0.174,1.069,0.683,68.0,507.0
2015-06-03,Porto-Novo,Benin,2.6289,6.4969,[2.1289 5.9969 3.1289 6.9969],0.295,0.167,0.773,0.554,0.535,0.161,1.054,0.683,54.0,507.0
2015-06-04,Porto-Novo,Benin,2.6289,6.4969,[2.1289 5.9969 3.1289 6.9969],0.295,0.147,0.773,0.498,0.523,0.169,1.083,0.7,53.0,499.0
2015-06-05,Porto-Novo,Benin,2.6289,6.4969,[2.1289 5.9969 3.1289 6.9969],0.272,0.147,0.773,0.439,0.502,0.146,1.053,0.696,52.0,517.0
2015-06-06,Porto-Novo,Benin,2.6289,6.4969,[2.1289 5.9969 3.1289 6.9969],0.227,0.099,0.633,0.381,0.443,0.105,0.988,0.647,63.0,487.0
2015-06-07,Porto-Novo,Benin,2.6289,6.4969,[2.1289 5.9969 3.1289 6.9969],0.375,0.016,0.916,0.457,0.464,0.092,0.991,0.647,52.0,517.0
2015-06-08,Porto-Novo,Benin,2.6289,6.4969,[2.1289 5.9969 3.1289 6.9969],0.322,0.016,0.916,0.396,0.459,0.092,1.0,0.647,36.0,491.0
2015-06-09,Porto-Novo,Benin,2.6289,6.4969,[2.1289 5.9969 3.1289 6.9969],0.363,0.016,0.945,0.507,0.46,0.118,1.021,0.67,57.0,517.0
2015-06-10,Porto-Novo,Benin,2.6289,6.4969,[2.1289 5.9969 3.1289 6.9969],0.375,0.016,1.022,0.533,0.48,0.099,1.027,0.67,63.0,507.0
2015-06-11,Porto-Novo,Benin,2.6289,6.4969,[2.1289 5.9969 3.1289 6.9969],0.363,0.016,1.022,0.53,0.52,0.132,1.035,0.677,64.0,514.0
2015-06-12,Porto-Novo,Benin,2.6289,6.4969,[2.1289 5.9969 3.1289 6.9969],0.304,0.086,0.945,0.537,0.471,0.117,0.995,0.647,81.0,526.0
2015-06-13,Porto-Novo,Benin,2.6289,6.4969,[2.1289 5.9969 3.1289 6.9969],0.304,0.086,0.945,0.537,0.441,0.119,0.965,0.62,81.0,501.0
2015-06-14,Porto-Novo,Benin,2.6289,6.4969,[2.1289 5.9969 3.1289 6.9969],0.281,0.057,0.884,0.493,0.439,0.115,0.985,0.629,77.0,527.0
2015-06-15,Porto-Novo,Benin,2.6289,6.4969,[2.1289 5.9969 3.1289 6.9969],0.281,0.057,0.884,0.493,0.501,0.13,0.982,0.652,77.0,492.0
2015-06-16,Porto-Novo,Benin,2.6289,6.4969,[2.1289 5.9969 3.1289 6.9969],0.281,0.057,0.884,0.493,0.505,0.142,0.987,0.638,77.0,526.0
2015-06-17,Porto-Novo,Benin,2.6289,6.4969,[2.1289 5.9969 3.1289 6.9969],0.281,0.086,0.804,0.493,0.487,0.13,0.959,0.637,90.0,503.0
2015-06-18,Porto-Novo,Benin,2.6289,6.4969,[2.1289 5.9969 3.1289 6.9969],0.281,0.086,0.804,0.487,0.467,0.13,0.953,0.631,100.0,517.0
2015-06-19,Porto-Novo,Benin,2.6289,6.4969,[2.1289 5.9969 3.1289 6.9969],0.281,0.086,0.804,0.491,0.464,0.122,0.923,0.594,91.0,486.0
2015-06-20,Porto-Novo,Benin,2.6289,6.4969,[2.1289 5.9969 3.1289 6.9969],0.286,0.086,0.764,0.491,0.454,0.13,0.901,0.57,108.0,477.0
2015-06-21,Porto-Novo,Benin,2.6289,6.4969,[2.1289 5.9969 3.1289 6.9969],0.306,0.152,0.804,0.557,0.457,0.146,0.886,0.581,97.0,495.0
2015-06-22,Porto-Novo,Benin,2.6289,6.4969,[2.1289 5.9969 3.1289 6.9969],0.286,0.129,0.82,0.572,0.46,0.12,0.938,0.601,104.0,464.0
2015-06-23,Porto-Novo,Benin,2.6289,6.4969,[2.1289 5.9969 3.1289 6.9969],0.306,0.065,0.876,0.584,0.478,0.096,0.945,0.607,103.0,492.0
2015-06-24,Porto-Novo,Benin,2.6289,6.4969,[2.1289 5.9969 3.1289 6.9969],0.377,0.129,0.906,0.553,0.481,0.095,0.946,0.588,95.0,466.0
2015-06-25,Porto-Novo,Benin,2.6289,6.4969,[2.1289 5.9969 3.1289 6.9969],0.377,0.065,0.906,0.538,0.429,0.068,0.929,0.568,93.0,491.0
2015-06-26,Porto-Novo,Benin,2.6289,6.4969,[2.1289 5.9969 3.1289 6.9969],0.377,0.065,0.906,0.54,0.446,0.061,0.893,0.568,92.0,479.0
2015-06-27,Porto-Novo,Benin,2.6289,6.4969,[2.1289 5.9969 3.1289 6.9969],0.377,0.039,0.906,0.552,0.408,0.058,0.896,0.554,72.0,481.0
2015-06-28,Porto-Novo,Benin,2.6289,6.4969,[2.1289 5.9969 3.1289 6.9969],0.377,0.039,0.906,0.552,0.434,0.059,0.884,0.555,72.0,491.0